sat.trackr.live / text

‹ back to catalog

STARLINK-3249

NORAD 49730 · 2021-115G

PAYLOAD ACTIVE UNKNOWN

§ Identity

Operator
Country
US
Launch date
2021-12-02
Launch site
AFETR
Launch vehicle
Mass (kg)
RCS (m²)

Purposes: comms

External: N2YO · Heavens-Above · Gunter

§ Orbital elements

Epoch: 2026-09-19T19:18:12.560256Z

Period
93.85 min
Inclination
53.1615°
Eccentricity
0.0001111
Mean motion
15.34394494 rev/d
Perigee alt
462.0 km
Apogee alt
463.5 km
Semi-major
6,840.9 km
B*
4.5191e-5
RAAN
353.1244°
Arg perigee
84.1269°
Mean anomaly
275.9860°
Rev number
26,489

§ Raw data

STARLINK-32491 49730U 21115G   26262.80431204  .00001151  00000+0  45191-4 0  99942 49730  53.1615 353.1244 0001111  84.1269 275.9860 15.34394494264894

JSON: /api/v1/satellites/49730 · /tle

For live sub-satellite position, see the globe view (requires WebGL).

§ Visibility from observer

Set your observer location to see the next 7 days of passes ≥ 10°. The values pass through the URL so the page stays shareable.

No JS? Fill the form by hand. The geolocation button needs JavaScript.